Meteo Giornale » Osservazioni meteo Stati Uniti (USA) » Albemarle Stanly

ore: 23:35 - Osservazioni Meteo Albemarle Stanly
Lat. 35° 25' N Lon. 80° 9' W Alt. 186 metri s.l.m.

sereno

23 °C

Sereno

Temp. 24 Ore

19 °C

33 °C

Nord

0 Km/h

Dew point 23 °C

Umidità 100 %

Visibilità  10 Km

Il sole sorge alle ore 06:52

Il sole tramonta alle ore 19:49

Data e Ora Cielo e Fenomeni T °C DP °C Um. % Pres. hPa Vis. km Vento km/h
Oggi h: 23:35 sereno Sereno 23 23 100 1021 10 N 0
Oggi h: 23:15 sereno Sereno 24 23 94 1021 10 N 0
Oggi h: 22:55 sereno Sereno 24 23 94 1021 10 N 0
Oggi h: 22:35 sereno Sereno 24 23 94 1021 10 N 0
Oggi h: 22:15 sereno Sereno 24 23 94 1021 10 N 0
Oggi h: 21:55 sereno Sereno 25 24 94 1021 10 N 0
Oggi h: 21:35 sereno Sereno 25 24 94 1020 10 N 0
Oggi h: 21:15 sereno Sereno 25 24 94 1020 10 N 0
Oggi h: 20:55 sereno Sereno 26 24 88 1020 10 N 0
Oggi h: 20:35 sereno Sereno 26 24 88 1020 10 N 0
Oggi h: 20:15 sereno Sereno 27 25 88 1020 10 N 0
Oggi h: 19:55 sereno Sereno 28 24 78 1019 10 N 0
Oggi h: 19:35 sereno Sereno 29 25 79 1019 10 N 0
Oggi h: 19:15 sereno Sereno 29 24 74 1019 10 N 0
Oggi h: 18:55 sereno Sereno 30 24 70 1019 10 N 0
Oggi h: 18:35 sereno Sereno 32 23 59 1019 10 N 0
Oggi h: 18:15 sereno Sereno 33 22 52 1020 10 N 0
Oggi h: 17:55 sereno Sereno 33 22 52 1020 10 N 0
Oggi h: 17:35 sereno Sereno 33 21 49 1020 10 N 0
Oggi h: 17:15 sereno Sereno 33 21 49 1020 10 N 0
Oggi h: 16:55 sereno Sereno 33 21 49 1020 10 N 0
Oggi h: 16:35 nuvoloso Nuvoloso 32 21 52 1020 10 N 0
Oggi h: 16:15 molto_nuvoloso Molto Nuvoloso 33 21 49 1020 10 N 0
Oggi h: 15:55 nuvoloso Nuvoloso 33 22 52 1020 10 N 0
Oggi h: 15:35 nuvoloso Nuvoloso 32 21 52 1021 10 N 0
Oggi h: 15:15 nuvoloso Nuvoloso 33 22 52 1021 10 N 0
Oggi h: 14:55 molto_nuvoloso Molto Nuvoloso 33 22 52 1021 10 N 5.5
Oggi h: 14:35 molto_nuvoloso Molto Nuvoloso 32 22 55 1021 10 N 0
Oggi h: 14:15 molto_nuvoloso Molto Nuvoloso 33 22 52 1021 10 N 5.5
Oggi h: 13:55 nuvoloso Nuvoloso 32 23 59 1021 10 S/SO 7.4
Oggi h: 13:35 sereno Sereno 32 22 55 1022 10 S/SO 9.3
Oggi h: 13:15 nuvoloso Nuvoloso 31 22 58 1022 10 SO 7.4
Oggi h: 12:55 nuvoloso Nuvoloso 31 23 62 1022 10 N 5.5
Oggi h: 12:35 sereno Sereno 30 23 66 1022 10 N 0
Oggi h: 12:15 nuvoloso Nuvoloso 30 23 66 1022 10 N 0
Oggi h: 11:55 sereno Sereno 29 23 70 1022 10 N 0
Oggi h: 11:35 sereno Sereno 29 23 70 1022 10 NO 7.4
Oggi h: 11:15 nuvoloso Nuvoloso 29 23 70 1022 10 O 7.4
Oggi h: 10:55 sereno Sereno 28 23 74 1022 10 O 9.3
Oggi h: 10:35 sereno Sereno 28 23 74 1022 10 N 5.5
Oggi h: 10:15 sereno Sereno 27 22 74 1022 10 O 9.3
Oggi h: 09:55 sereno Sereno 27 23 78 1022 10 O 11.1
Oggi h: 09:35 sereno Sereno 26 23 83 1022 10 N 5.5
Oggi h: 09:15 sereno Sereno 25 23 88 1022 10 N 0
Oggi h: 08:55 sereno Sereno 24 23 94 1022 10 N 0
Oggi h: 08:35 sereno Sereno 22 22 100 1022 10 N 0
Oggi h: 08:15 sereno Sereno 21 21 100 1022 10 N 0
Oggi h: 07:55 sereno Sereno 20 20 100 1022 10 N 0
Oggi h: 07:35 sereno Sereno 19 19 100 1022 10 N 0
Oggi h: 07:15 sereno Sereno 19 18 93 1022 10 N 0
Oggi h: 06:55 sereno Sereno 19 19 100 1022 10 N 0
Oggi h: 06:35 sereno Sereno 19 19 100 1022 10 N 0
Oggi h: 06:15 sereno Sereno 19 19 100 1022 10 N 0
Oggi h: 05:55 nuvoloso Nuvoloso 19 19 100 1022 11 N 0
Oggi h: 05:35 foschia Foschia 19 19 100 1022 5 N 0
Oggi h: 05:15 foschia Foschia 19 19 100 1022 3 N 0
Oggi h: 04:55 nebbia Nebbia 19 19 100 1021 2 N 0
Oggi h: 04:35 foschia Foschia 19 19 100 1022 5 N 0
Oggi h: 04:15 molto_nuvoloso Molto Nuvoloso 19 19 100 1022 11 N 0
Oggi h: 03:55 nuvoloso Nuvoloso 19 19 100 1021 10 N 0
Oggi h: 03:35 molto_nuvoloso Molto Nuvoloso 19 19 100 1021 10 N 0
Oggi h: 03:15 molto_nuvoloso Molto Nuvoloso 19 19 100 1022 10 N 0
Oggi h: 02:55 nuvoloso Nuvoloso 20 19 93 1022 10 N 0
Oggi h: 02:35 sereno Sereno 20 19 93 1022 11 N 0
Oggi h: 02:15 sereno Sereno 19 19 100 1022 10 N 0
Oggi h: 01:55 sereno Sereno 19 19 100 1022 10 N 0
Oggi h: 01:35 sereno Sereno 20 19 93 1022 11 N 0
Oggi h: 01:15 sereno Sereno 20 20 100 1022 10 N 0
Oggi h: 00:55 sereno Sereno 20 20 100 1022 10 N 0
Oggi h: 00:35 sereno Sereno 20 20 100 1022 10 N 0
Oggi h: 00:15 sereno Sereno 20 20 100 1022 10 N 0
Ieri h: 23:55 sereno Sereno 20 20 100 1022 10 N 0
Ieri h: 23:35 sereno Sereno 21 20 94 1022 10 N 0